Weather in El-Adabiya

Egypt     29°58′39″N   32°32′36″E
temp.,
°C
wind,
m/s
gust,
m/s
humid.,
%
clouds,
%
prec.,
mm/h
press.,
hPa
HPBL,
m
26 june, sun
sun2623:00+23n57690 0.0 1011196
02:00+21nnw33760 0.0 101144
05:00+20nnw33830 0.0 101136
08:00+24n34600 0.0 1012729
11:00+30n34290 0.0 10111263
14:00+34n57210 0.0 10091583
17:00+35n98170 0.0 10081377
20:00+27n59360 0.0 1010143
27 june, mon
mon2723:00+24nnw45620 0.0 101175
02:00+23nnw34670 0.0 101048
05:00+22nw33670 0.0 101033
08:00+27nnw34460 0.0 1011577
11:00+34nw45270 0.0 10091782
14:00+37nw67170 0.0 10072574
17:00+34n1211320 0.0 1006951
20:00+27n610510 0.0 1009286
28 june, tue
tue2823:00+24nnw33720 0.0 100955
02:00+23nnw33690 0.0 100837
05:00+21nw22730 0.0 100822
08:00+26nnw12500 0.0 1008575
11:00+32nnw33290 0.0 10071447
14:00+35nnw44210 0.0 10052294
17:00+36nw35200 0.0 10052515
20:00+28nnw811460 0.0 1007316
29 june, wed
wed2923:00+25nnw68680 0.0 1008224
02:00+24nnw45750 0.0 100894
05:00+23nnw34780 0.0 100862
08:00+27nnw33550 0.0 1008618
11:00+32n22330 0.0 10071524
14:00+36nne23210 0.0 10052479
17:00+36nnw44190 0.0 10042434
20:00+29nnw68410 0.0 1006118
30 june, thu
thu3023:00+25nnw710620 0.0 1008239
02:00+23nnw34690 0.0 100762
05:00+23nw33650 0.0 100737
08:00+28nnw43430 0.0 1008516
11:00+33n33300 0.0 10071553
14:00+37n54220 0.0 10052503
17:00+36nnw55220 0.0 10042340
20:00+28nnw69440 0.0 1007198